Theta_e
349 349 350 350 351 349 350 350 349 350 349 349 348 349 350 350 348 349 351 350 351 352 353 354 354 355 355 356 355 356 356 357 358 359 358 357 357 357 357 356 356 356 356 355 353 352 351 349 349 349 348 344 344 343 342 342 342 342 342 340 339 337 336 334 332 332 337 338 337 338 341 339 338 341 340 340 341 343 345 346 346 345 344 345 345
348 349 350 350 350 350 350 350 350 350 349 348 348 348 349 350 350 350 349 350 352 352 353 354 354 354 354 355 355 356 356 356 357 358 358 357 357 357 356 356 355 355 356 355 355 353 352 350 350 350 349 346 345 343 343 341 341 341 341 341 340 339 338 336 334 334 333 338 336 341 340 340 340 342 341 339 340 342 342 343 344 344 344 344 344
348 349 349 349 349 350 350 349 350 349 348 348 347 348 348 349 351 350 349 350 352 352 353 353 354 354 354 354 355 355 356 356 357 357 357 357 356 356 356 356 355 355 354 355 355 355 352 351 350 351 350 347 346 345 343 342 342 341 341 341 341 341 339 338 338 335 334 335 340 338 339 341 339 342 342 341 344 344 342 342 341 343 344 344 343
348 349 349 349 349 349 349 349 349 349 348 348 347 348 348 349 351 351 351 351 351 353 354 354 354 354 354 354 354 355 355 356 356 356 357 357 357 356 357 356 356 356 355 355 355 354 354 352 352 352 351 348 348 347 346 344 343 342 341 342 342 341 342 340 339 337 338 335 338 338 341 340 342 342 343 343 340 341 341 342 343 342 343 344 343
347 348 348 348 348 348 348 349 348 348 348 348 348 348 348 349 349 350 351 351 351 352 354 355 354 354 353 353 354 354 355 355 355 356 356 357 357 356 356 357 356 356 356 356 356 355 354 353 354 353 352 349 349 348 348 346 345 343 342 342 341 341 341 341 340 340 337 335 336 340 342 342 343 343 343 342 343 342 342 341 341 342 343 342 343
347 347 347 347 347 348 348 348 348 348 348 348 348 348 349 349 349 350 351 351 352 352 352 354 354 354 354 354 354 354 355 355 355 356 356 357 357 357 357 357 356 356 356 356 356 356 355 355 354 354 352 350 349 350 350 348 347 345 344 343 342 342 341 341 341 340 339 337 337 337 341 339 340 342 344 343 341 341 342 343 342 341 341 341 341
347 347 347 347 347 347 347 347 348 348 348 348 349 349 349 349 349 349 351 351 351 351 352 352 354 355 355 355 355 355 355 355 355 356 356 357 357 357 356 356 356 356 356 356 356 356 356 356 355 355 353 352 351 351 351 350 348 347 347 347 345 343 341 340 341 339 338 338 338 339 338 341 341 337 344 344 343 341 340 338 339 343 341 341 341
346 347 347 347 347 347 347 348 348 348 349 349 349 349 349 349 350 350 351 351 351 351 351 352 353 354 355 355 356 356 356 355 355 356 356 356 357 356 356 356 356 356 356 357 356 356 356 356 356 356 355 355 354 353 353 351 351 348 349 348 346 344 342 342 340 339 338 338 337 337 339 339 340 340 340 340 339 339 339 338 336 338 341 342 341
346 346 346 346 347 348 348 349 349 349 349 349 349 349 349 350 350 351 351 351 351 352 352 353 352 352 354 354 355 356 356 355 356 356 355 356 357 356 356 356 356 356 356 356 356 356 357 357 357 357 357 354 347 346 347 346 352 349 350 349 347 345 344 342 341 340 339 338 337 339 338 337 338 338 338 337 336 335 342 340 338 339 341 340 341
346 346 346 346 348 348 349 349 349 349 349 349 349 349 349 350 350 350 350 351 351 352 352 353 353 352 352 353 354 354 355 355 349 338 341 355 356 356 356 356 356 356 356 355 356 356 356 357 357 355 345 342 340 338 336 336 338 348 352 352 349 347 345 343 342 340 339 338 337 338 337 336 337 339 338 339 340 340 338 339 336 338 340 337 337
346 346 346 347 348 349 349 349 349 348 349 349 349 349 349 350 350 350 350 350 351 351 352 351 352 353 353 353 353 353 354 353 338 332 332 335 351 356 355 356 356 356 356 355 355 356 357 357 358 357 351 344 345 336 335 334 333 333 335 338 343 350 348 345 344 343 340 340 340 340 338 337 339 340 338 338 338 338 337 338 338 337 334 331 330
347 347 347 348 349 349 349 349 349 349 349 349 349 350 350 350 349 349 349 349 350 351 350 350 351 351 352 353 353 353 354 341 333 330 330 330 335 354 356 356 356 356 356 356 356 356 356 356 357 358 358 359 358 356 344 335 331 331 331 331 332 333 337 347 348 346 343 341 341 342 341 339 339 340 338 337 337 338 338 337 336 335 334 332 332
348 348 349 349 349 349 350 349 349 349 349 349 350 350 350 349 349 349 349 350 350 350 350 350 350 350 350 351 351 353 354 338 331 329 329 328 328 338 355 356 356 356 356 356 357 357 357 357 357 358 358 350 354 358 359 357 337 329 329 330 329 329 329 329 332 347 351 347 345 344 344 342 340 340 340 339 340 338 338 336 335 336 336 334 334
349 349 350 350 350 350 350 350 349 350 350 350 350 350 349 349 349 350 350 350 350 349 350 350 350 350 350 350 350 351 352 339 330 327 326 326 326 331 351 354 355 356 356 357 357 357 357 357 357 357 358 359 359 359 358 358 358 355 347 342 342 340 331 326 325 326 334 346 347 345 347 345 342 343 345 343 339 338 337 336 338 336 335 334 337
350 350 350 351 351 351 351 350 350 350 351 351 350 350 350 350 350 350 350 349 349 349 349 349 350 350 350 350 350 349 350 334 327 324 323 322 324 328 347 352 354 355 356 357 357 357 358 358 358 357 358 358 359 357 358 358 357 357 356 356 354 352 351 347 342 339 338 341 341 343 343 345 345 346 347 347 344 343 342 341 342 342 340 339 337
350 351 351 351 352 352 352 351 351 351 351 351 350 350 350 350 350 350 350 350 350 351 351 351 350 350 350 350 350 349 351 332 326 324 321 321 323 337 345 349 351 353 354 355 356 357 358 358 358 357 358 358 349 337 342 356 357 356 354 355 356 356 356 344 338 340 344 344 343 342 343 344 338 346 345 346 347 347 346 345 344 341 338 334 332
351 351 352 352 353 353 353 352 352 351 351 351 350 350 350 350 351 352 350 350 350 350 350 350 351 350 350 351 350 350 350 338 325 321 320 319 323 341 345 347 349 351 352 354 355 356 357 358 358 357 358 358 346 334 332 334 353 355 355 355 355 355 355 358 339 327 327 329 331 331 330 330 330 327 326 326 332 338 340 338 337 339 334 331 332
351 352 352 353 354 354 354 353 353 352 352 351 351 351 352 352 352 352 351 350 349 350 351 351 351 352 350 350 351 350 351 342 325 319 318 318 327 343 345 347 348 349 351 353 354 355 357 350 356 358 357 358 340 331 331 337 349 353 354 353 353 353 354 355 356 344 324 323 325 326 326 325 325 324 323 323 324 327 335 332 337 340 336 331 331
351 352 353 354 355 355 355 355 354 353 353 353 353 352 352 352 353 353 352 352 351 352 352 351 351 351 351 351 345 348 351 343 325 320 318 316 326 345 347 347 347 349 350 351 353 354 355 353 348 346 351 350 334 330 327 334 350 353 354 353 351 351 353 352 346 346 344 340 340 339 341 334 336 337 338 327 325 331 335 336 338 338 336 335 333
351 353 354 355 356 356 356 356 355 354 354 354 354 354 354 354 354 353 353 353 352 352 352 352 351 351 351 351 351 350 350 352 345 320 317 314 318 344 348 347 347 348 350 350 351 353 354 355 350 332 327 327 326 323 321 320 343 353 354 353 351 351 350 343 342 343 342 342 341 342 342 344 345 345 345 345 344 344 341 340 339 339 338 338 337
352 353 354 355 356 356 357 356 356 356 356 355 355 355 355 354 354 354 353 353 353 352 352 352 351 351 351 352 351 352 352 351 349 322 315 314 315 325 347 348 350 350 350 350 351 351 353 354 356 340 326 321 319 317 316 316 321 343 349 350 353 345 327 340 340 341 341 341 340 340 341 341 342 342 342 343 344 345 345 344 344 343 341 338 337
353 354 355 355 356 356 357 358 358 357 357 357 356 355 356 356 355 354 354 353 352 352 352 351 351 351 352 352 352 352 352 343 352 327 317 313 313 315 340 349 349 351 350 351 352 352 353 354 356 347 332 325 318 313 311 313 314 330 340 325 319 318 331 332 336 339 339 341 342 341 342 341 340 340 340 341 340 341 342 343 346 346 345 343 340
355 354 355 355 356 357 358 358 357 358 358 358 356 355 356 355 355 355 354 353 352 351 351 351 351 350 351 352 352 353 353 351 333 344 320 313 312 311 319 335 331 349 351 350 351 353 355 357 356 328 313 308 307 308 309 309 314 324 315 314 314 313 320 333 335 337 338 339 340 339 338 340 340 339 338 338 339 340 340 342 342 343 344 345 345
353 354 354 354 355 357 358 359 359 359 359 358 357 356 355 355 355 354 354 352 351 351 351 351 351 349 349 350 351 352 353 353 338 329 334 315 312 311 312 316 324 344 351 352 354 356 358 352 334 308 305 303 305 308 309 313 327 317 313 312 313 316 329 335 335 337 338 337 336 336 337 339 339 337 337 338 338 340 340 340 341 341 341 341 342
352 351 352 354 354 356 357 358 359 359 359 359 357 356 356 356 354 354 353 352 351 350 351 351 350 350 349 349 350 351 352 353 353 340 328 322 314 312 312 313 315 318 342 350 351 343 325 312 307 309 310 308 309 312 315 315 314 316 315 317 325 336 337 337 336 336 335 334 334 335 335 337 338 338 338 338 338 338 338 338 339 339 339 340 340
351 351 351 352 353 355 355 356 358 359 359 360 359 358 357 355 354 354 353 352 352 351 350 350 350 350 349 350 350 351 352 353 353 351 337 333 324 315 313 314 316 317 326 337 322 315 312 311 311 312 317 323 332 332 331 330 318 319 320 327 333 333 333 335 332 332 331 331 331 331 332 334 334 335 335 335 334 332 332 332 333 333 334 334 333
354 351 350 351 351 353 354 354 355 357 358 359 359 359 358 357 355 353 353 352 352 351 351 350 349 350 349 350 351 352 352 352 351 346 343 343 344 338 325 323 317 318 324 333 331 333 330 331 327 320 319 319 323 323 326 326 329 329 329 330 330 330 331 331 330 329 329 329 328 329 330 331 332 332 330 329 329 329 331 330 329 329 330 330 329
354 351 349 350 351 352 353 358 357 355 357 357 358 358 358 358 356 354 354 354 353 352 352 351 350 350 350 352 352 352 349 348 346 345 342 341 341 336 333 331 328 330 330 334 337 335 330 323 323 329 329 329 330 330 329 328 327 327 328 329 328 329 327 324 325 330 329 329 328 328 328 328 327 327 327 327 327 327 329 328 327 326 326 327 326
349 349 349 350 351 355 354 357 357 352 335 324 314 314 322 334 354 357 357 359 358 356 354 354 353 355 355 354 353 349 348 344 345 332 345 328 336 335 333 333 331 333 329 322 332 330 329 328 327 328 329 329 328 326 326 326 327 327 328 328 328 328 328 329 327 327 327 325 324 324 324 325 324 325 325 324 325 325 326 325 325 324 324 326 324
347 347 347 350 351 355 354 355 350 341 337 329 324 318 308 300 304 326 345 322 318 321 330 355 358 357 356 354 349 352 348 350 322 315 313 312 313 316 316 316 317 324 317 316 326 328 328 329 329 329 327 326 324 325 326 327 327 327 327 322 326 327 327 327 327 327 326 325 325 323 323 323 322 323 322 322 323 324 324 321 323 324 323 322 322
344 345 346 349 351 353 352 348 343 340 338 337 335 330 329 321 301 298 303 307 303 304 312 318 323 334 352 344 320 305 309 303 300 299 299 299 299 300 301 302 304 305 310 325 330 330 329 327 325 324 323 324 324 324 324 324 324 324 325 325 327 326 325 325 326 325 325 324 324 324 324 323 322 322 321 321 321 321 321 322 322 323 322 322 321
344 342 341 345 349 349 348 344 341 339 338 338 338 336 335 333 326 305 298 301 300 297 296 302 309 316 321 322 319 315 304 299 298 298 298 298 298 298 299 301 303 306 309 315 327 326 326 324 323 322 322 323 323 324 323 323 323 324 324 324 325 326 325 325 324 324 323 323 322 322 323 323 322 322 321 320 320 320 320 320 320 320 321 322 322
342 342 342 345 347 347 343 341 341 341 339 339 338 338 337 335 331 324 316 302 300 298 298 298 299 300 302 302 304 305 302 299 298 298 299 299 299 299 298 299 301 302 310 324 326 324 323 322 321 322 323 323 324 324 324 324 324 323 323 323 323 324 324 325 324 324 323 322 323 323 322 322 322 321 320 320 320 318 319 319 320 321 321 320 321
343 342 341 342 343 343 343 342 341 342 341 341 341 340 340 336 333 330 329 328 324 313 304 299 298 298 298 298 299 298 298 298 298 299 300 301 301 304 305 308 302 305 314 327 326 323 322 322 322 322 324 324 325 325 324 324 324 323 323 323 323 323 323 324 323 323 323 323 323 322 321 321 321 320 320 320 320 320 319 319 320 319 319 319 319
346 350 348 344 340 341 342 342 342 342 341 340 340 338 335 333 332 332 331 329 326 322 321 317 305 300 306 302 298 298 298 298 298 298 298 300 302 304 310 328 328 326 324 324 324 323 322 322 322 323 325 325 325 325 324 324 323 323 322 322 322 322 322 322 321 322 322 322 322 322 321 321 322 321 320 319 319 318 318 319 319 319 318 318 319
340 339 340 340 338 338 338 339 340 341 340 337 336 334 334 334 331 327 324 326 324 322 320 317 313 306 299 295 295 296 296 297 298 297 297 299 303 312 325 324 324 323 322 323 323 322 324 324 325 325 325 326 326 325 324 323 323 322 322 322 321 321 321 320 320 321 322 322 321 321 319 322 322 320 320 320 319 319 319 318 318 318 318 318 318
338 338 337 336 335 334 334 334 335 334 332 333 334 333 332 331 330 328 327 325 325 323 321 321 321 320 316 314 304 297 297 299 299 301 304 306 309 320 324 324 323 322 322 322 321 322 324 325 326 326 326 326 326 325 324 323 323 322 319 321 321 320 321 320 320 321 321 321 322 322 321 321 321 321 319 318 318 319 319 319 319 318 318 316 315
334 335 335 335 334 333 332 332 332 330 333 333 333 332 331 329 328 329 328 328 328 326 326 327 325 323 321 319 321 316 310 306 308 310 310 310 318 323 323 323 322 322 320 320 321 322 324 324 327 327 327 327 326 324 323 322 322 322 321 321 320 321 315 318 319 320 321 322 322 322 321 321 321 321 320 319 319 318 318 319 319 318 319 318 317
330 325 324 326 328 334 333 333 333 333 332 331 331 331 331 329 329 328 326 325 324 322 322 322 321 321 320 321 322 326 324 325 323 322 323 322 322 322 321 322 322 321 321 323 324 325 327 327 327 327 325 324 323 322 322 321 321 321 320 320 320 320 319 319 319 319 320 321 321 322 321 321 322 321 321 320 319 319 319 319 319 319 318 318 318
328 328 326 324 328 329 333 335 334 334 334 332 331 332 331 328 325 324 323 321 319 319 319 317 316 315 318 321 324 325 324 323 323 323 323 322 322 322 323 323 324 323 324 325 326 326 326 325 324 324 324 323 322 321 321 321 321 320 320 320 319 319 319 318 318 317 318 319 320 321 321 321 321 321 321 321 320 320 320 319 319 319 319 319 319
328 329 328 324 324 328 329 328 328 329 330 331 331 329 327 326 324 323 321 319 318 317 316 315 313 313 313 310 309 313 322 322 322 323 322 322 322 322 322 322 323 323 324 324 324 324 323 322 321 321 321 321 320 321 321 320 320 319 319 319 318 318 318 318 317 317 317 317 318 320 321 321 321 320 319 320 314 317 321 321 320 320 320 320 319
324 323 324 323 324 325 324 324 324 324 325 326 325 325 324 322 321 320 319 318 317 315 314 313 313 313 308 305 305 307 320 322 322 321 321 322 322 321 321 321 321 321 321 320 322 322 321 320 318 317 317 316 317 318 318 318 318 318 318 317 317 317 316 316 316 317 316 316 317 319 319 320 319 319 320 313 320 320 321 320 320 320 320 320 319
324 323 323 323 322 321 321 321 321 319 317 316 318 321 320 319 318 317 317 316 315 314 312 312 313 314 311 306 308 309 316 318 319 318 319 319 319 319 318 318 318 318 318 317 318 319 319 317 315 313 312 311 311 311 311 311 313 315 314 314 314 314 314 316 316 316 316 316 316 317 318 319 319 320 320 320 320 320 320 320 319 320 319 320 319
319 319 319 319 319 319 319 319 318 318 317 317 316 314 314 314 314 313 312 311 311 311 311 310 310 309 309 308 307 309 311 312 312 313 313 314 314 314 315 314 314 314 313 311 310 311 312 312 311 311 310 309 309 308 308 307 308 308 309 309 309 309 310 310 311 311 312 313 315 317 318 319 319 320 320 320 320 320 320 320 319 318 318 319 319
315 315 315 314 315 314 314 315 315 315 316 314 312 311 312 311 310 310 310 309 309 309 308 308 308 308 307 307 307 306 307 307 309 308 308 309 309 309 308 308 307 307 307 307 306 306 305 304 305 305 304 304 305 305 305 304 304 303 303 303 303 303 304 304 305 306 307 309 313 316 318 318 319 319 319 320 319 319 319 321 320 317 318 318 317
313 313 313 312 312 311 311 310 312 311 311 310 309 308 308 308 307 307 307 307 306 306 305 305 305 305 305 304 305 305 304 304 304 305 305 305 305 305 305 305 305 304 303 303 304 303 303 303 303 302 302 302 301 302 302 302 302 301 301 301 300 300 300 300 300 301 304 308 311 314 316 317 318 318 318 320 319 318 319 320 321 320 320 319 318
308 309 309 309 309 309 309 309 308 308 307 306 306 306 305 305 305 305 306 305 304 304 303 303 302 302 302 302 302 302 302 302 302 302 302 303 303 303 304 303 303 302 302 302 302 301 301 301 301 301 301 300 300 300 300 300 300 299 299 299 299 298 297 297 298 301 303 306 309 311 313 315 316 317 317 318 318 319 318 319 319 318 319 319 320
305 305 305 306 305 304 304 305 306 307 305 305 304 304 303 303 302 302 302 302 302 302 301 301 301 301 301 301 301 301 301 301 301 302 301 301 301 302 302 302 302 301 301 300 300 299 299 299 299 299 299 298 298 297 298 298 298 297 297 297 296 295 293 293 298 301 301 301 305 309 312 313 314 315 315 316 316 317 317 319 318 318 318 317 317
308 306 304 303 302 301 301 301 302 301 301 302 302 302 302 301 300 299 299 299 299 300 299 299 299 300 300 300 300 300 300 300 299 299 299 300 300 300 300 300 301 300 299 298 298 298 298 298 298 298 297 297 296 296 297 297 296 295 294 294 293 292 289 291 294 296 294 299 305 309 310 311 311 312 312 313 314 315 316 317 317 317 317 317 317
305 306 305 305 303 302 301 300 299 298 299 299 299 299 300 300 299 299 299 298 298 298 298 299 298 298 298 298 299 298 298 297 297 297 298 298 299 299 299 299 299 298 298 297 297 297 297 296 296 296 296 296 296 295 296 296 296 295 294 293 291 289 288 289 292 293 295 298 303 307 309 310 311 312 312 312 312 312 313 314 314 314 314 315 315
304 303 303 303 302 302 300 299 298 298 298 297 297 297 297 297 297 297 297 297 296 296 297 296 297 297 297 298 298 297 297 297 297 297 297 297 297 298 298 298 298 297 297 297 297 297 296 296 296 295 295 296 295 295 296 296 295 294 292 291 290 290 289 290 293 291 291 294 304 307 307 307 308 308 308 309 310 311 310 312 312 312 312 312 313
Wind_Speed
15 14 13 13 13 13 13 12 13 11 11 11 11 11 10 9 10 9 6 8 8 8 9 9 9 9 8 8 8 9 8 7 6 5 6 6 7 7 6 8 7 6 5 6 6 6 7 7 7 8 5 6 5 4 4 5 4 4 4 4 5 5 6 6 7 11 8 4 6 5 2 1 3 6 7 6 5 6 8 8 7 7 8 7 8
15 14 13 13 15 14 14 13 12 11 12 11 12 11 10 10 9 8 10 9 9 9 10 8 8 10 8 9 9 9 9 8 6 6 6 7 6 6 8 8 7 6 6 7 7 5 6 7 7 7 5 6 5 5 5 5 5 5 5 5 6 6 7 7 8 7 15 3 5 3 4 3 6 3 7 7 8 5 7 7 6 8 7 7 7
16 14 14 14 15 14 13 12 12 13 13 12 11 11 9 10 9 10 10 9 9 10 10 10 9 9 9 9 9 9 9 8 7 7 7 8 8 7 6 7 7 7 9 8 7 5 6 7 8 6 4 5 6 6 5 6 5 6 7 6 6 6 6 7 6 9 11 12 5 6 6 4 7 6 6 6 6 4 5 7 7 6 6 7 8
15 15 14 14 15 13 13 12 13 12 12 12 13 12 11 9 9 11 11 8 9 9 10 10 9 9 10 10 10 10 10 9 8 8 9 8 8 8 7 7 7 7 8 8 7 8 11 9 8 6 4 6 6 6 6 6 6 6 6 6 6 7 6 6 8 9 8 11 7 6 4 5 6 5 4 3 5 4 5 5 4 6 7 7 8
15 15 15 15 14 14 14 13 13 14 14 11 11 11 10 9 9 10 10 10 10 9 9 9 9 10 10 11 11 11 11 10 9 8 8 8 8 7 8 7 8 8 7 7 7 7 7 9 7 5 6 7 7 6 5 7 6 6 7 6 7 6 5 6 7 6 8 11 12 6 4 5 4 3 3 4 4 5 5 6 6 6 7 8 7
15 14 14 15 14 15 14 13 14 14 14 12 13 12 11 11 11 9 10 11 11 9 10 8 10 11 11 11 11 11 10 10 10 10 8 8 8 8 8 8 8 8 7 8 8 7 8 9 7 9 10 9 8 7 6 8 6 7 7 6 6 5 6 7 6 7 7 10 9 10 5 6 6 5 3 3 4 5 6 6 5 6 6 7 8
15 15 15 15 14 15 15 15 14 14 14 14 12 12 12 11 10 11 11 11 10 10 9 10 10 11 12 11 11 11 10 10 10 10 10 9 9 9 8 8 8 7 8 8 8 8 9 8 7 7 9 9 8 8 6 6 6 8 8 7 6 6 7 7 6 7 7 7 7 7 8 5 4 9 3 4 4 6 7 9 9 5 6 7 8
15 15 15 15 15 15 15 15 15 15 14 13 13 13 13 12 12 12 11 12 11 11 10 11 10 10 11 11 11 10 10 10 10 10 10 10 9 9 9 8 8 8 8 8 8 8 9 9 9 8 8 8 8 8 7 8 6 7 7 6 6 7 7 6 6 7 7 7 7 8 7 7 3 4 1 1 4 5 7 6 9 10 7 6 8
16 16 16 16 16 15 14 13 12 12 12 11 12 12 12 12 12 12 11 11 10 11 10 11 11 11 11 11 10 10 10 10 10 10 11 11 10 9 9 8 8 8 8 8 8 8 9 9 8 8 10 12 14 13 11 10 7 7 9 6 7 7 7 6 6 6 6 6 6 6 7 6 5 5 6 5 8 12 6 6 8 8 7 6 8
16 15 16 16 14 13 13 12 12 11 11 12 12 12 12 12 12 12 12 12 11 10 10 11 10 11 12 11 10 9 10 9 11 16 14 11 10 8 9 9 9 8 8 8 8 9 9 9 9 14 14 15 15 16 16 15 15 12 12 8 7 6 7 6 6 6 6 6 7 6 8 7 5 6 8 8 8 7 7 6 7 7 4 8 10
15 16 16 14 13 13 12 12 12 13 13 12 12 13 13 11 11 12 12 12 11 11 10 11 10 10 11 11 11 10 10 10 15 15 16 17 12 10 10 9 8 8 8 9 9 8 8 8 8 11 12 12 14 16 16 16 17 18 20 19 14 11 11 12 11 10 9 13 10 8 8 11 8 7 9 10 9 10 11 8 7 7 8 10 13
16 15 15 13 13 14 13 13 13 13 13 13 13 13 12 12 12 12 12 12 11 10 12 12 12 11 10 11 11 11 11 13 15 16 16 17 15 12 8 8 8 8 8 8 8 8 9 9 8 7 8 10 9 10 13 16 17 18 20 20 19 18 15 13 12 11 11 12 12 9 9 10 11 8 11 10 12 11 10 9 10 10 11 11 11
15 14 14 14 14 14 13 14 14 14 14 14 13 12 13 13 13 12 13 12 11 12 12 12 12 12 12 12 12 12 11 13 16 17 16 16 17 14 10 10 8 8 8 9 9 10 10 8 8 8 8 12 11 9 9 10 14 20 20 20 19 18 18 20 19 15 9 10 10 11 9 9 12 13 12 13 11 11 10 10 10 9 11 11 11
14 14 14 14 14 14 14 14 14 14 14 13 13 13 14 14 14 13 12 12 12 12 13 14 13 12 12 13 12 11 11 14 16 17 16 17 17 14 9 10 10 10 11 9 9 10 11 9 9 9 8 9 9 9 9 10 10 9 11 9 9 14 17 20 21 20 16 13 11 13 10 3 16 19 16 9 10 12 11 13 9 7 10 11 11
14 14 15 14 13 13 14 14 14 14 14 14 13 14 14 13 13 12 12 13 13 14 14 14 13 13 13 12 11 12 11 15 16 17 16 17 16 14 8 8 9 11 11 12 12 12 10 9 10 11 11 9 9 10 10 10 10 8 11 12 11 10 10 11 10 10 9 12 9 12 14 15 19 22 16 8 11 12 10 13 14 7 3 7 9
14 13 14 14 14 14 14 14 14 14 14 13 14 14 13 14 14 13 12 12 11 11 10 11 13 13 13 12 11 14 12 16 16 16 16 15 16 9 8 9 9 10 11 12 12 11 10 11 11 12 12 11 13 16 15 12 9 11 13 11 11 10 10 11 14 7 7 6 11 19 18 18 20 18 19 15 11 10 6 10 12 6 3 6 16
14 14 14 14 14 15 15 15 15 14 14 14 14 14 14 14 13 11 12 12 11 11 12 11 11 12 12 13 14 14 13 15 16 17 16 16 12 8 8 7 8 9 11 12 12 11 11 11 11 11 11 12 14 16 16 14 11 10 13 12 10 9 9 9 10 9 11 16 28 30 23 21 23 24 23 23 15 11 7 8 14 11 7 9 14
14 14 14 14 15 14 15 15 15 15 14 15 15 14 14 13 13 12 12 12 11 12 10 11 11 11 13 13 13 12 12 13 16 17 17 17 15 10 8 8 8 9 11 11 10 10 12 16 14 12 13 13 15 16 16 13 10 12 13 12 10 10 10 10 3 9 11 21 25 26 17 13 19 22 22 22 21 13 9 12 13 10 9 9 13
14 14 14 14 14 14 14 14 14 14 14 15 15 15 15 14 13 12 11 11 12 11 11 11 11 11 11 12 15 15 13 13 16 17 17 17 15 10 10 8 9 9 8 10 10 10 10 11 15 16 14 15 17 16 16 12 10 14 12 11 10 8 11 5 3 5 4 5 13 11 7 11 15 16 18 22 22 18 13 16 13 11 13 12 12
14 13 13 13 12 12 12 13 14 14 15 15 13 14 13 11 10 10 10 9 10 9 10 9 11 10 10 11 10 12 14 13 13 17 17 17 19 12 9 9 9 9 9 10 9 8 9 9 11 16 19 19 18 15 12 12 10 12 10 10 11 13 6 11 10 4 1 8 10 6 9 9 9 9 10 11 11 12 14 12 14 12 15 14 13
11 12 11 11 11 12 11 12 14 14 14 14 14 13 11 11 11 11 10 10 11 10 11 10 10 11 10 11 10 11 11 13 13 16 17 18 20 17 10 11 10 10 9 9 7 8 8 8 9 13 15 14 14 15 15 13 12 8 8 12 11 4 6 4 11 12 8 13 14 11 8 7 7 7 7 8 9 8 8 10 10 11 13 15 15
10 9 10 11 12 12 12 12 13 12 12 11 10 11 11 11 10 11 10 10 12 12 11 10 10 10 10 11 11 12 12 16 12 13 17 19 19 21 13 11 12 10 10 9 7 7 9 9 8 5 7 8 8 9 10 11 11 7 7 9 11 10 5 5 6 8 9 8 9 8 6 5 5 6 7 7 9 8 8 8 8 10 11 14 16
7 8 9 10 10 11 11 13 12 10 11 12 12 12 11 11 11 10 11 11 11 12 12 10 10 10 9 9 9 10 10 10 15 12 15 19 20 20 21 15 15 11 9 10 9 10 8 7 4 6 7 8 7 7 6 6 3 4 5 4 5 5 1 3 5 7 6 7 6 7 8 6 7 7 8 9 9 8 8 8 10 11 11 11 13
7 9 10 10 10 11 11 12 12 11 12 12 12 12 11 10 10 10 10 10 10 11 9 9 9 10 10 9 9 9 9 9 11 16 13 17 18 20 20 20 16 11 11 9 8 5 4 3 4 8 9 9 9 8 7 5 0 0 2 3 1 2 2 2 3 3 4 4 6 7 7 7 7 9 9 9 11 11 11 11 13 12 12 13 14
8 9 8 9 11 11 11 11 12 12 11 12 11 11 11 10 10 9 9 10 10 10 9 9 10 10 10 10 9 8 8 8 7 10 15 15 17 18 20 20 20 16 8 3 2 2 5 9 9 7 6 7 8 8 6 5 3 2 2 1 2 1 1 1 1 2 1 3 4 6 8 8 8 9 10 11 13 12 11 10 12 12 13 12 13
7 9 8 8 9 8 10 10 11 11 12 10 11 11 12 12 11 10 10 10 10 10 10 9 9 9 9 9 9 9 7 6 6 5 7 11 11 15 17 18 17 13 9 1 7 9 9 9 10 10 8 6 6 5 4 4 4 6 6 5 2 2 1 1 1 1 1 2 4 5 7 7 9 9 11 11 11 11 11 11 12 13 12 13 13
6 6 7 8 8 8 9 8 8 8 9 8 9 9 9 10 10 9 10 9 9 9 9 9 8 7 8 8 9 7 6 6 5 5 4 5 6 7 8 8 8 8 7 5 5 4 6 6 7 9 10 11 9 6 5 4 4 4 3 2 2 2 2 2 3 2 2 4 5 6 7 7 8 9 9 10 11 11 10 10 12 12 13 13 13
6 6 6 6 7 8 8 10 9 7 7 7 7 7 7 8 8 9 10 9 10 9 9 9 9 8 8 8 8 6 5 6 5 6 7 7 5 5 5 4 6 6 6 7 6 6 6 8 9 7 6 5 4 3 3 4 3 2 2 2 3 3 3 1 0 1 2 3 5 6 7 8 9 9 10 10 11 12 11 11 12 14 13 14 14
4 4 5 5 5 6 7 7 7 6 5 6 6 5 1 2 5 6 6 7 9 9 9 8 8 8 7 7 7 7 5 6 10 10 10 11 11 8 6 6 5 5 7 11 8 7 7 7 7 5 3 3 4 4 2 1 2 2 3 4 4 4 4 3 4 4 5 6 6 7 8 8 9 9 10 11 12 12 12 11 12 13 13 11 13
4 2 2 4 5 5 5 5 5 6 7 6 6 6 7 7 5 1 3 5 5 1 4 9 8 8 7 5 5 9 10 10 6 10 8 8 6 6 6 8 8 8 12 14 10 8 6 6 4 4 4 4 4 2 2 2 2 3 4 4 4 3 3 3 3 4 4 6 6 7 8 8 9 10 11 12 13 13 12 10 12 11 12 13 13
4 2 1 2 5 5 5 6 6 6 7 8 6 7 5 8 14 12 7 5 5 6 3 1 2 6 8 6 3 11 8 12 12 11 11 11 11 13 14 14 15 16 16 13 7 6 6 6 5 5 5 5 5 4 3 4 4 3 4 3 2 3 4 4 5 5 5 6 6 5 5 7 8 9 11 12 13 14 14 11 12 12 12 13 15
4 3 2 1 4 6 6 6 8 7 7 7 7 7 6 6 7 14 13 12 13 12 10 7 7 9 11 13 10 5 9 12 15 15 15 15 14 13 15 17 17 15 9 10 9 6 6 6 6 5 5 5 4 4 4 4 4 4 3 3 3 3 3 4 6 6 6 7 7 6 6 6 7 8 9 10 12 13 13 14 13 13 13 13 13
4 4 4 4 4 6 6 5 7 8 9 9 7 7 7 7 7 6 9 14 17 16 15 14 12 10 12 12 11 12 12 12 16 17 17 17 17 15 14 12 11 13 12 8 8 7 6 6 6 5 5 5 4 4 4 4 3 3 3 2 3 4 4 5 6 5 5 5 5 5 6 6 7 8 9 12 13 14 13 12 12 12 12 14 15
4 3 4 4 5 4 5 5 6 7 7 8 8 7 5 6 8 8 8 7 9 13 16 17 14 15 14 17 19 18 16 15 14 15 16 16 16 16 15 11 12 8 10 8 8 7 7 7 5 5 4 4 4 4 4 3 3 2 2 2 3 4 5 5 5 4 4 4 5 6 6 7 7 9 12 12 12 12 11 12 12 13 14 14 14
5 6 8 5 3 3 3 4 4 5 6 6 6 5 5 5 7 7 7 8 8 7 6 8 13 15 11 10 15 17 17 17 17 16 15 12 10 10 12 11 9 8 9 7 7 6 6 5 5 4 4 4 4 4 3 3 2 2 2 2 3 3 4 4 5 5 5 5 6 6 6 7 7 7 10 11 11 12 12 13 14 13 14 14 13
5 4 4 4 4 4 4 4 4 4 5 5 5 5 5 6 6 7 8 8 9 9 8 7 7 11 16 15 16 17 18 19 16 13 11 10 9 10 10 7 8 7 6 5 6 6 6 5 5 4 3 3 3 3 3 2 2 1 1 2 3 3 4 4 5 5 4 4 4 5 6 6 6 9 10 10 11 12 12 12 12 13 13 12 12
5 4 4 4 4 5 5 5 5 6 6 7 6 6 6 6 7 7 7 8 9 8 8 8 9 9 10 9 12 14 16 16 15 16 17 16 16 12 8 8 7 6 5 4 3 4 4 4 4 4 3 2 2 2 2 1 0 1 1 2 2 3 3 4 4 5 5 5 5 4 6 6 7 7 9 10 10 10 10 11 11 12 12 13 12
6 4 3 4 4 5 6 7 7 8 7 7 7 7 8 8 8 9 9 8 8 10 9 6 6 6 8 7 7 7 11 13 17 15 13 13 10 8 7 7 6 6 4 2 2 2 3 2 2 3 2 2 2 2 1 1 1 1 1 2 3 3 5 5 4 4 5 4 4 5 5 6 6 7 8 9 8 9 10 10 12 13 11 11 9
6 9 10 8 6 6 5 6 6 6 7 7 8 9 10 9 8 8 10 11 10 10 9 8 8 7 7 7 6 6 11 10 9 9 9 8 8 7 6 5 5 5 4 3 3 3 3 3 2 3 2 2 2 2 1 0 1 1 2 2 3 3 4 4 5 5 5 4 4 4 4 5 5 6 6 6 7 8 9 10 11 12 13 12 11
6 5 6 9 6 7 6 5 5 6 6 7 8 9 10 9 8 8 9 12 11 9 8 9 9 6 4 3 5 8 11 9 9 9 9 8 7 6 5 5 5 4 4 3 3 3 4 3 3 3 3 3 2 2 1 1 1 2 2 2 3 3 4 4 4 5 5 6 6 4 4 5 5 6 6 6 7 8 8 9 8 9 9 9 10
6 6 6 6 6 6 6 7 6 6 7 6 5 8 10 9 8 5 7 12 13 10 7 7 9 8 7 9 10 11 11 11 10 9 8 8 6 6 6 5 5 5 4 4 4 4 4 4 4 4 4 3 3 2 2 2 2 2 2 2 3 3 4 4 4 4 5 6 6 5 4 4 4 5 6 7 7 7 7 6 7 7 7 7 8
5 6 6 5 6 6 7 8 8 9 9 9 8 6 7 11 9 7 7 10 12 12 11 9 8 8 12 17 16 17 11 9 9 9 8 8 8 7 6 6 6 5 5 5 5 5 5 5 5 5 5 5 4 4 4 4 3 2 2 3 3 4 4 4 4 5 5 5 6 6 6 5 4 5 5 4 5 6 7 7 7 7 7 7 7
7 6 6 6 6 6 7 8 7 9 10 11 9 8 6 6 9 11 8 7 11 11 11 9 9 10 11 13 14 14 10 9 9 8 8 7 7 7 7 6 6 6 6 6 6 5 5 6 6 6 6 6 6 5 5 4 3 3 3 3 3 4 5 4 4 4 4 4 5 6 7 7 7 5 5 4 4 5 5 7 7 7 7 7 7
9 8 8 8 8 8 7 8 10 11 11 14 14 12 9 9 10 9 7 7 11 12 11 10 8 7 7 9 10 9 8 8 8 8 7 7 7 7 7 6 6 7 7 7 6 6 6 6 6 6 6 6 6 6 6 5 5 5 5 4 3 4 4 5 5 5 5 6 5 4 5 4 4 4 5 5 4 5 5 5 7 7 7 7 7
10 9 9 9 9 9 10 9 11 12 12 11 11 11 9 9 9 8 8 8 9 10 10 10 8 8 8 8 8 8 8 8 7 7 8 8 8 8 7 7 7 7 7 7 7 7 7 7 7 7 7 7 7 7 7 7 7 7 6 5 5 5 5 6 6 6 6 6 6 5 4 4 5 4 5 5 4 4 5 3 3 6 7 7 7
11 10 11 10 10 10 10 10 10 9 9 10 9 9 9 10 9 10 10 10 9 10 10 10 9 9 9 8 8 9 8 8 8 8 8 8 8 7 7 7 7 7 7 7 7 8 8 8 7 7 7 7 7 7 7 7 6 6 6 5 4 4 4 5 6 6 5 5 5 5 5 4 4 4 5 5 4 3 4 4 3 2 2 4 5
11 10 9 10 9 10 10 10 9 9 9 9 8 8 9 9 10 11 12 11 9 9 9 9 9 10 9 9 9 9 9 9 9 8 8 8 8 7 7 7 7 7 8 8 8 8 8 8 7 7 7 7 6 6 6 6 6 5 5 5 5 6 6 6 5 5 5 5 5 5 5 4 5 5 5 4 4 4 3 3 3 4 4 3 2
12 12 11 10 10 10 10 11 12 14 11 10 9 9 11 12 10 11 10 10 11 10 9 9 10 10 10 9 9 9 9 9 9 8 8 7 7 7 8 8 8 7 7 8 8 8 8 8 8 8 8 8 8 7 7 7 7 7 7 7 7 9 10 10 5 5 5 5 5 5 5 5 5 4 4 4 4 4 4 4 4 3 3 3 3
12 14 14 14 14 13 12 12 12 13 12 11 10 11 10 10 11 11 11 13 12 11 10 10 9 9 9 9 9 10 9 9 9 8 8 7 8 8 8 8 9 8 8 8 8 9 9 8 9 8 8 8 8 8 8 8 8 8 9 8 12 18 16 15 9 7 10 6 4 4 4 4 4 4 4 3 4 3 3 3 3 3 3 3 3
10 9 9 11 12 14 15 15 15 14 13 12 12 10 10 10 10 11 11 11 11 11 10 11 10 10 10 10 11 10 10 10 9 9 8 7 7 8 8 8 9 9 9 8 8 8 8 8 8 8 8 8 8 8 8 9 8 9 9 10 15 17 17 17 14 15 11 5 5 4 4 4 4 3 3 3 3 3 4 4 4 3 3 4 3
12 12 12 11 10 8 10 13 15 16 16 15 13 11 10 9 9 9 9 10 10 10 9 10 10 11 10 10 10 9 9 9 8 8 7 7 7 8 8 8 8 8 8 8 8 8 8 9 9 9 9 9 9 9 8 9 9 9 11 16 18 19 19 17 12 14 16 10 6 6 5 5 5 5 5 5 5 4 5 5 4 4 4 4 3
Wind_Direction
188 193 188 193 191 193 195 194 197 196 194 193 196 199 196 195 197 200 177 194 189 193 198 201 202 205 205 211 213 216 218 216 204 202 202 210 216 215 206 212 214 223 218 216 208 210 215 226 232 227 199 203 216 212 204 199 191 201 181 179 194 184 182 198 231 266 271 199 253 263 279 191 247 208 230 233 227 218 223 230 228 224 228 230 234
189 189 189 191 193 194 194 194 195 194 195 196 199 198 196 196 196 184 194 197 189 197 201 201 203 203 206 212 214 218 220 218 206 200 207 214 215 208 219 211 213 220 213 230 215 211 213 225 236 233 202 216 215 216 211 205 198 199 198 192 204 202 192 196 226 237 273 210 252 230 260 183 253 183 216 230 237 207 223 228 228 225 227 231 231
187 186 188 190 194 195 192 193 192 195 197 198 200 196 194 196 189 192 199 197 195 200 202 203 202 203 208 212 213 217 218 217 207 205 214 216 218 215 205 203 210 216 223 226 225 212 220 225 237 228 198 215 222 226 207 214 205 211 213 200 212 211 198 206 210 242 257 271 214 243 222 211 214 236 216 238 252 218 228 233 230 227 227 231 234
186 186 188 192 192 190 192 192 193 195 197 201 202 200 196 194 190 197 200 196 197 203 203 203 202 203 209 212 213 215 216 217 212 210 215 215 219 222 213 212 214 217 222 226 221 225 237 240 237 227 211 224 229 223 216 214 210 215 220 216 217 224 208 198 219 236 258 277 256 227 228 223 241 243 242 238 247 242 234 249 237 239 234 225 228
184 187 188 190 189 190 193 192 194 197 200 199 202 197 196 193 193 198 197 201 203 199 203 202 203 204 210 213 214 214 216 214 216 215 216 216 221 221 221 219 220 221 221 225 223 220 224 229 237 210 214 229 235 229 219 218 217 212 221 214 218 227 216 214 224 220 247 257 273 262 243 247 248 262 205 234 240 246 252 243 234 240 242 238 233
184 185 187 189 190 191 192 193 196 198 199 200 200 198 197 199 197 199 199 204 204 201 201 197 204 208 214 216 216 218 215 214 216 218 215 215 219 221 222 223 225 225 225 224 223 221 226 231 228 231 235 228 234 233 226 229 219 221 221 219 215 209 222 226 223 231 230 253 263 282 250 256 272 242 225 209 248 262 258 244 233 231 241 253 236
182 185 188 191 190 193 192 194 196 198 199 201 199 198 199 198 196 200 200 204 204 205 202 203 207 210 215 215 218 218 217 215 217 217 218 218 220 221 223 224 225 226 228 226 225 226 230 231 227 213 222 226 232 232 228 231 226 232 226 225 210 205 222 227 221 228 233 247 260 253 270 244 227 272 236 212 234 238 260 274 268 205 222 230 251
184 186 187 191 192 194 195 195 197 198 198 198 199 199 200 200 202 203 201 206 207 209 206 207 209 211 215 215 219 217 217 219 219 218 218 218 217 222 223 223 224 229 231 229 226 230 231 233 229 219 218 224 228 234 214 230 224 236 233 213 208 209 223 227 226 230 237 241 246 268 264 271 239 242 303 250 265 253 223 234 263 265 241 228 231
184 186 188 191 196 195 195 196 198 197 196 197 199 200 201 201 201 203 205 209 211 211 211 212 213 216 219 217 217 214 216 220 219 218 219 220 218 223 222 221 223 228 231 230 230 231 234 236 234 229 226 229 227 230 227 222 222 237 245 211 212 212 219 221 228 235 242 243 257 258 266 264 256 269 258 227 232 253 253 188 240 252 262 258 250
184 186 191 195 195 192 192 192 193 192 193 196 199 201 202 202 201 205 208 210 211 209 212 214 214 216 220 219 218 215 218 220 219 215 214 218 219 223 227 227 227 229 233 234 233 229 233 233 237 236 232 230 230 229 231 227 225 230 248 233 220 212 216 222 222 229 240 246 240 248 262 259 245 239 253 243 245 252 245 218 234 248 246 253 264
184 187 193 193 189 189 189 193 190 192 195 197 199 201 203 201 203 207 209 209 209 209 209 213 215 217 219 219 219 219 222 223 217 211 214 216 217 222 225 229 227 230 231 236 240 238 236 235 240 240 234 233 234 234 233 229 228 233 240 243 236 229 244 247 247 243 247 260 258 254 258 271 263 251 253 263 252 243 248 238 230 239 241 255 269
185 188 190 186 187 188 191 189 192 196 194 199 199 200 200 201 206 207 208 208 210 208 212 214 217 219 220 220 221 222 225 223 216 213 211 211 212 221 222 227 227 228 231 233 241 241 241 242 238 238 236 235 232 230 229 231 231 232 237 241 241 236 231 231 240 245 244 253 262 256 266 270 271 254 254 251 255 252 242 239 231 227 239 238 245
183 185 187 188 189 189 188 190 193 195 197 198 198 197 200 203 205 207 209 208 208 210 213 214 217 218 220 222 225 225 228 221 216 215 211 206 209 212 227 227 225 229 227 231 236 240 243 244 247 241 243 236 236 237 242 237 224 228 234 238 241 237 236 236 234 237 246 254 261 267 249 267 274 262 242 246 249 260 257 248 239 233 246 255 259
182 186 187 190 190 188 189 191 195 197 196 197 198 199 201 204 205 206 207 207 210 213 215 217 218 218 219 222 227 230 229 225 215 215 211 206 204 203 222 225 230 232 232 231 233 238 239 241 245 249 242 239 237 233 235 238 244 232 232 230 235 240 235 235 235 235 237 245 254 261 261 191 263 261 251 241 251 253 261 266 264 241 253 255 275
182 187 190 190 188 189 190 193 196 197 198 198 199 202 202 205 206 206 206 207 207 212 214 216 218 219 221 221 226 232 232 225 219 214 211 205 202 198 212 220 229 235 236 236 237 238 238 236 240 248 250 243 237 233 234 238 240 238 247 250 240 238 232 234 216 203 201 233 253 263 262 237 243 262 272 251 245 250 253 267 273 265 276 7 309
186 187 189 189 190 191 190 193 196 197 198 198 200 203 204 205 206 205 207 211 213 214 218 218 219 220 220 221 224 233 234 224 219 217 208 204 193 194 203 217 222 231 236 238 239 239 239 237 241 245 249 247 243 231 231 240 242 245 252 248 251 251 248 237 241 211 178 181 219 233 233 243 247 251 260 260 255 258 262 286 288 281 152 209 255
188 188 190 190 191 191 191 193 196 197 197 198 201 203 204 207 209 205 208 210 211 212 216 214 218 219 218 218 223 231 236 225 216 216 210 195 183 198 203 213 221 225 234 237 239 240 238 237 237 244 246 248 245 236 233 228 244 245 253 253 250 256 263 261 244 220 174 190 226 233 229 234 248 251 258 267 271 278 294 271 267 259 212 227 257
189 188 192 192 193 192 193 194 196 197 195 199 201 205 206 207 208 202 205 207 211 213 211 217 217 217 219 220 219 227 234 226 213 214 207 192 188 197 205 207 220 224 235 238 238 240 239 236 237 241 245 248 244 236 234 226 233 245 257 260 256 251 259 262 298 83 194 218 234 245 245 252 267 274 275 272 263 249 234 244 250 257 245 216 241
188 191 195 193 192 192 193 195 197 196 197 201 203 205 205 205 206 201 205 209 214 213 214 217 219 218 217 220 222 224 234 231 213 211 204 194 193 209 207 212 222 225 227 238 236 238 241 239 235 238 242 246 245 239 234 224 237 252 254 261 262 251 252 227 91 255 277 270 259 267 277 232 237 248 255 251 251 242 226 238 251 244 250 244 236
191 194 195 193 192 192 193 195 198 196 199 204 204 207 206 205 202 199 205 207 214 213 213 214 218 219 215 218 220 222 229 234 218 207 202 195 194 201 209 212 221 225 227 231 241 233 234 242 238 235 237 243 249 251 251 228 230 252 255 257 266 273 48 91 115 116 204 256 269 259 246 244 241 240 245 251 246 236 235 225 234 239 248 251 246
188 194 193 191 191 193 193 195 198 201 202 203 203 206 202 204 203 200 202 205 212 215 214 215 218 222 217 218 221 220 224 229 227 202 201 195 197 199 211 215 219 224 228 230 227 237 236 234 240 237 235 240 243 246 247 240 232 241 248 256 256 345 46 123 133 150 221 245 256 258 254 254 254 255 265 264 262 256 242 230 228 226 237 246 249
186 186 188 192 193 193 194 197 199 202 204 201 201 207 207 205 203 202 203 205 209 214 215 216 219 223 222 221 221 225 223 222 229 206 198 198 198 199 210 216 214 218 227 233 228 231 238 237 245 234 218 220 224 232 235 238 235 232 245 270 317 330 2 114 190 204 232 246 256 269 276 280 277 280 281 284 284 282 280 275 252 241 233 235 240
161 172 185 192 193 194 194 195 197 199 201 199 200 206 203 201 202 199 201 204 208 212 215 212 216 222 226 223 223 224 223 221 217 217 199 199 200 201 209 217 210 213 221 232 228 234 237 241 222 129 130 128 140 156 179 202 187 220 250 282 271 329 20 156 166 204 228 251 269 276 289 292 300 295 287 283 281 281 286 278 276 268 258 249 241
162 174 185 191 191 196 196 197 198 199 199 196 199 204 201 199 201 199 200 201 204 210 213 211 213 221 224 227 224 224 222 222 212 213 207 199 203 201 209 219 217 211 217 230 236 230 206 162 128 135 137 144 154 162 162 165 230 38 291 275 248 181 174 145 153 172 210 239 259 285 289 293 296 295 294 297 298 302 296 289 285 279 272 269 264
166 184 192 191 192 195 194 198 199 200 200 195 196 201 203 195 199 200 197 201 204 207 211 206 210 214 220 225 227 224 223 218 220 207 209 203 203 205 209 213 222 221 222 217 168 106 112 125 132 145 147 135 129 126 118 118 121 144 130 125 163 133 133 104 141 175 180 228 252 270 285 288 293 294 301 302 302 300 295 293 288 289 285 279 274
161 179 188 193 198 194 197 202 202 202 200 197 199 198 198 195 198 198 195 201 202 204 208 205 210 213 217 224 226 226 218 213 211 194 199 212 211 212 211 213 220 214 217 90 116 127 141 137 130 118 105 104 100 90 97 100 91 75 54 50 59 66 76 97 93 136 323 286 277 279 287 297 298 303 304 303 302 298 306 306 305 302 300 298 297
155 164 182 186 189 187 194 199 199 202 203 199 200 199 199 199 198 197 195 198 199 203 205 206 208 207 215 220 225 223 205 183 190 196 190 188 207 205 196 209 191 172 190 184 149 127 117 115 106 102 99 94 92 95 94 106 86 59 50 53 59 55 69 46 32 14 349 324 310 298 296 295 296 301 301 309 303 299 304 304 299 296 300 297 294
150 169 180 178 183 185 191 193 188 193 192 191 194 195 195 197 195 197 195 193 194 200 201 204 206 202 207 213 216 210 182 187 191 195 197 193 188 174 179 167 169 178 170 182 178 123 111 106 100 97 97 95 109 92 64 52 68 80 78 77 57 56 51 36 101 66 338 315 309 307 310 314 313 308 305 302 299 298 303 302 300 299 300 302 297
101 143 162 168 182 186 184 186 183 162 107 78 55 39 358 272 204 196 201 200 198 197 201 206 205 209 207 207 187 195 197 196 219 201 196 189 182 167 176 182 166 175 156 136 119 104 103 101 106 110 117 124 82 66 67 109 89 98 68 42 39 41 34 23 18 7 354 343 337 332 324 319 311 308 307 304 302 302 304 303 301 301 301 291 287
74 74 143 165 170 162 151 153 135 129 133 120 113 74 63 82 40 1 157 6 5 304 185 201 202 197 200 199 198 194 207 218 145 150 147 144 136 141 124 130 141 132 136 135 128 121 119 117 115 110 98 88 99 97 76 46 29 30 39 31 23 25 15 15 8 357 347 344 333 329 323 319 320 321 316 311 310 308 306 300 302 305 299 301 295
80 66 78 166 167 151 144 140 140 134 141 143 134 130 129 57 46 45 42 37 43 52 94 189 242 193 181 169 39 23 62 92 106 106 103 109 118 116 114 115 119 127 132 122 106 114 122 109 106 109 116 116 113 104 80 66 46 29 22 14 14 10 5 5 4 350 345 336 326 311 306 326 323 315 315 317 318 317 320 321 316 310 306 305 301
116 109 109 127 145 142 144 140 141 138 143 148 142 145 128 111 64 38 41 54 56 55 45 69 118 139 154 146 133 57 77 101 108 106 101 96 93 99 108 118 127 132 137 110 101 106 113 116 118 117 122 114 112 104 91 79 61 44 20 6 359 4 2 2 353 341 333 332 332 318 322 324 319 313 315 317 322 325 325 323 322 316 311 305 299
110 114 108 110 130 144 135 139 149 149 152 154 157 153 142 142 121 95 48 59 67 59 51 47 56 80 94 90 103 122 130 122 116 113 115 113 104 95 86 86 114 134 117 91 109 107 103 109 119 126 120 118 120 111 93 79 71 62 35 9 340 344 354 340 324 315 315 320 320 325 326 315 316 313 318 331 333 330 326 318 318 316 314 313 310
116 124 113 124 127 145 154 156 153 160 160 159 161 152 148 140 140 134 125 117 71 58 52 48 57 76 85 103 107 105 107 108 107 108 108 106 106 102 95 83 70 65 85 106 100 110 115 114 109 116 121 121 118 106 95 86 70 59 34 351 333 333 328 321 320 317 315 331 343 333 321 322 322 336 337 332 330 326 322 322 320 323 324 320 314
75 102 118 117 119 119 124 146 142 137 151 152 144 137 124 126 131 129 133 120 106 93 85 58 43 50 70 85 94 100 101 94 82 72 63 67 77 101 93 73 64 56 58 66 90 97 97 102 114 120 124 112 109 104 96 82 66 45 9 340 333 325 319 325 331 336 339 346 333 324 323 322 331 327 335 334 334 335 331 327 327 326 324 318 316
85 79 57 96 103 102 103 98 103 119 124 114 112 106 112 119 110 112 107 102 106 107 92 72 81 63 66 62 76 86 87 87 86 80 71 63 52 63 75 79 72 59 73 70 95 97 103 111 108 110 109 107 103 96 91 85 72 36 332 313 307 311 316 323 330 337 337 324 308 310 325 328 330 340 341 338 336 335 331 329 325 327 325 324 319
78 72 83 78 89 96 90 81 89 101 100 103 106 106 103 101 108 103 98 101 100 95 102 110 99 85 72 65 73 84 92 95 91 86 80 76 74 77 85 91 97 81 73 72 84 107 108 99 101 108 109 100 93 86 93 105 193 255 248 277 290 297 303 312 318 328 329 316 320 329 339 334 333 336 340 339 336 334 333 331 331 329 332 328 329
52 63 67 77 97 97 98 101 101 95 94 100 102 102 100 100 106 110 107 102 103 112 107 100 94 102 106 106 116 116 104 100 90 78 72 67 65 74 76 74 74 81 80 83 88 110 124 146 137 105 94 86 80 79 111 198 254 284 307 301 295 289 292 303 321 318 313 309 324 338 334 333 331 338 341 343 334 338 338 333 336 339 335 332 341
68 68 76 81 83 92 102 110 107 107 107 110 114 111 108 107 103 101 104 105 100 95 96 95 90 89 106 128 122 126 103 81 83 84 80 75 71 72 71 75 83 88 90 93 108 109 122 118 106 81 78 64 67 75 75 320 325 323 328 315 309 317 331 344 333 327 329 334 327 333 335 329 331 336 335 333 333 336 339 338 342 342 345 345 354
79 70 64 79 76 73 85 83 93 103 110 118 117 114 109 107 108 112 109 101 91 84 86 87 79 62 55 47 104 109 95 95 89 90 87 83 79 75 83 90 92 95 107 114 101 87 76 67 67 65 60 56 57 51 42 1 360 332 321 320 321 332 338 335 328 330 335 333 332 323 333 335 337 337 337 344 341 330 332 336 337 333 334 337 340
85 77 75 62 78 89 75 70 65 65 84 90 100 114 114 112 109 97 99 105 103 91 74 71 76 71 61 71 74 85 95 95 93 88 87 91 86 80 73 71 73 68 60 55 60 68 64 64 55 61 54 54 49 41 36 29 21 8 349 338 335 334 331 327 327 327 331 330 328 322 320 337 341 348 344 339 335 331 325 322 325 326 329 332 340
61 81 69 57 57 73 79 80 81 74 72 77 77 68 100 108 97 86 88 105 106 102 94 77 70 70 66 71 76 82 84 85 91 92 87 86 85 84 81 75 69 66 62 54 53 63 65 65 59 54 54 47 42 39 33 36 21 20 21 14 355 338 328 327 329 327 330 329 324 327 329 332 337 332 330 332 335 332 330 333 333 330 338 341 347
36 40 54 61 56 55 74 89 84 79 76 70 62 68 53 71 97 97 82 78 95 98 96 88 79 74 65 53 65 71 77 75 76 75 81 82 84 84 78 75 70 67 60 53 49 53 64 68 66 56 54 47 42 39 35 21 6 10 30 30 357 331 323 319 315 321 324 324 326 326 329 334 337 334 326 330 335 330 332 333 330 339 335 344 347
49 41 45 52 55 61 60 71 80 85 89 93 88 71 54 65 76 71 81 81 81 83 84 81 80 67 65 48 51 57 64 66 64 67 67 64 58 58 56 54 50 52 48 43 34 31 41 51 57 55 50 46 39 38 36 28 14 17 11 14 358 340 326 330 330 330 329 319 316 313 324 320 320 319 317 320 329 328 328 340 339 339 339 346 349
54 49 49 55 56 59 63 55 77 86 87 85 86 87 80 73 58 50 64 68 68 69 72 72 69 67 62 57 54 56 59 62 61 55 52 52 53 49 47 44 43 43 41 40 33 35 40 42 44 42 38 35 31 30 30 27 28 23 19 7 5 352 343 329 319 311 306 302 304 305 306 314 318 320 313 312 318 318 307 326 331 337 341 349 350
67 63 58 54 56 53 52 53 59 58 65 75 81 81 78 74 68 69 67 64 66 72 73 71 67 65 64 64 60 59 57 59 57 57 54 52 54 49 43 42 46 45 45 38 35 36 37 41 39 39 33 29 23 23 23 24 24 24 21 19 3 343 324 314 307 302 301 301 304 302 302 302 299 300 300 308 305 303 297 310 307 316 320 330 342
73 66 64 59 60 56 56 56 55 55 58 59 57 64 70 75 78 77 74 72 67 65 68 69 68 65 63 62 60 59 57 57 59 56 56 55 56 52 49 44 45 47 42 40 37 39 37 37 37 37 35 28 23 22 18 13 11 4 3 0 4 351 347 331 312 297 295 300 298 291 296 288 295 295 305 303 295 291 293 306 312 316 310 321 305
79 77 75 71 67 65 57 54 55 52 49 50 55 56 67 72 73 75 76 74 70 66 64 64 65 64 64 60 59 57 56 55 53 52 49 47 44 47 46 48 47 45 43 42 39 39 37 34 33 32 30 22 18 15 11 7 6 2 357 357 358 350 333 328 311 321 326 311 282 280 282 288 289 292 299 296 295 296 307 308 309 293 297 302 312
107 102 98 88 82 75 70 64 62 59 55 46 43 43 53 65 70 68 71 74 72 69 68 67 65 64 64 64 60 57 54 52 48 44 41 40 41 40 44 45 45 45 45 43 38 33 31 29 31 31 30 24 20 15 17 13 7 6 358 358 347 344 346 350 350 346 332 315 297 293 284 279 288 296 295 286 289 288 283 277 277 287 284 278 272
67 67 79 98 109 113 110 101 90 80 69 58 49 39 39 43 54 64 68 70 72 70 66 68 68 68 69 66 64 59 56 53 50 47 44 41 39 39 40 42 44 41 41 38 35 33 32 30 28 26 26 24 19 19 19 17 14 7 6 352 348 353 354 353 355 357 353 333 317 318 318 317 317 312 314 307 304 308 307 303 301 287 286 281 276
75 78 78 76 75 73 85 97 103 106 102 93 79 61 37 31 43 50 51 59 64 68 68 69 69 66 63 63 63 61 58 56 53 46 39 34 39 45 46 46 45 46 44 44 39 39 34 35 32 31 31 28 24 23 20 15 16 6 358 0 6 4 3 3 358 347 345 341 324 333 339 344 339 341 338 338 332 329 322 315 306 309 302 297 287